SCP
1 1 1 1 0 0 0 0 0 0 0 0 0 0 0 0 0 0 0 0 0 0 0 0 0 0 0 0 0 0 0 0 0 0 0 0 0 0 0 0 0 0 0
1 1 1 0 0 0 0 0 0 0 0 0 0 0 0 0 0 0 0 0 0 0 0 0 0 0 0 0 0 0 0 0 0 0 0 0 0 0 0 0 0 0 0
1 1 1 0 0 0 0 0 0 0 0 0 0 0 0 0 0 0 0 0 0 0 0 0 0 0 0 0 0 0 0 0 0 0 0 0 0 0 0 0 0 0 0
1 1 0 0 0 0 0 0 0 0 0 0 0 0 0 0 0 0 0 0 0 0 0 0 0 0 0 0 0 0 0 0 0 0 0 0 0 0 0 0 0 0 0
1 1 0 0 0 0 0 0 0 0 0 0 0 0 0 0 0 0 0 0 0 0 0 0 0 0 0 0 0 0 0 0 0 0 0 0 0 0 0 0 0 0 0
1 0 0 0 0 0 0 0 0 0 0 0 0 0 0 0 0 0 0 0 0 0 0 0 0 0 0 0 0 0 0 0 0 0 0 0 0 0 0 0 0 0 0
1 1 0 0 0 0 0 0 0 0 0 0 0 0 0 0 0 0 0 0 0 0 0 0 0 0 0 0 0 0 0 0 0 0 0 0 0 0 0 0 0 0 0
1 0 0 0 0 0 0 0 0 0 0 0 0 0 0 0 0 0 0 0 0 0 0 0 0 0 0 0 0 0 0 0 0 0 0 0 0 0 0 0 0 0 0
0 0 0 0 0 0 0 0 0 0 0 0 0 0 0 0 0 0 0 0 0 0 0 0 0 0 0 0 0 0 0 0 0 0 0 0 0 0 0 0 0 0 0
0 0 0 0 0 0 0 0 0 0 0 0 0 0 0 0 0 0 0 0 0 0 0 0 0 0 0 0 0 0 0 0 0 0 0 0 0 0 0 0 0 0 0
0 0 0 0 0 0 0 0 0 0 0 0 0 0 0 0 0 0 0 0 0 0 0 0 0 0 0 0 0 0 0 0 0 0 0 0 0 0 0 0 0 0 0
0 0 0 0 0 0 0 0 0 0 0 0 0 0 0 0 0 0 0 0 0 0 0 0 0 0 0 0 0 0 0 0 0 0 0 0 0 0 0 0 0 0 0
0 0 0 0 0 0 0 0 0 0 0 0 0 0 0 0 0 0 0 0 0 0 0 0 0 0 0 0 0 0 0 0 0 0 0 0 0 0 0 0 0 0 0
0 0 0 0 0 0 0 0 0 0 0 0 0 0 0 0 0 0 0 0 0 0 0 0 0 0 0 0 0 0 0 0 0 0 0 0 0 0 0 0 0 0 0
0 0 0 0 0 0 0 0 0 0 0 0 0 0 0 0 0 0 0 0 0 0 0 0 0 0 0 0 0 0 0 0 0 0 0 0 0 0 0 0 0 0 0
0 0 0 0 0 0 0 0 0 0 0 0 0 0 0 0 0 0 0 0 0 0 0 0 0 0 0 0 0 0 0 0 0 0 0 0 0 0 0 0 0 0 0
0 0 0 0 0 0 0 0 0 0 0 0 0 0 0 0 0 0 0 0 0 0 0 0 0 0 0 0 0 0 0 0 0 0 0 0 0 0 0 0 0 0 0
0 0 0 0 0 0 0 0 0 0 0 0 0 0 0 0 0 0 0 0 0 0 0 0 0 0 0 0 0 0 0 0 0 0 0 0 0 0 0 0 0 0 0
0 0 0 0 0 0 0 0 0 0 0 0 0 0 0 0 0 0 0 0 0 0 -0 -0 0 0 0 0 0 0 0 0 0 0 0 0 0 0 0 0 0 0 0
0 0 0 0 0 0 0 0 0 0 0 0 0 0 0 0 0 0 0 0 0 0 0 0 0 0 0 0 0 0 0 0 0 0 0 0 0 0 0 0 0 0 0
0 0 0 0 0 0 0 0 0 0 0 0 0 0 0 0 0 0 0 0 0 0 0 0 0 0 0 0 0 0 0 0 0 0 0 0 0 0 0 0 0 0 0
0 0 0 0 0 0 0 0 0 0 0 0 0 0 0 0 0 0 0 0 0 0 0 0 0 0 0 0 0 0 0 0 0 0 0 0 0 0 0 0 0 0 0
0 0 0 0 0 0 0 0 0 0 0 0 0 0 0 0 0 0 0 0 0 0 0 0 0 0 0 0 0 0 0 -0 -0 0 0 0 0 0 0 0 0 0 0
0 0 0 0 0 0 0 0 0 0 0 0 0 0 0 0 0 0 0 0 0 0 0 0 0 0 0 0 0 0 0 0 0 0 0 0 0 0 0 0 0 0 0
0 0 0 0 0 0 0 0 0 0 0 0 0 0 0 0 0 0 0 0 0 0 0 0 0 0 0 0 0 0 0 0 0 0 0 0 0 0 0 0 0 0 0
0 0 0 0 0 0 0 0 0 0 0 0 0 0 0 0 0 0 0 0 0 0 0 0 0 0 0 0 0 0 0 0 0 0 0 0 0 0 0 0 0 0 0
Wind_Speed
7 7 7 6 6 6 6 6 5 4 4 3 3 3 2 2 2 1 2 2 3 3 2 2 2 2 2 2 2 1 2 2 2 2 3 3 2 2 1 1 1 1 1
9 8 7 5 5 6 6 5 5 4 3 2 2 2 2 2 1 1 1 2 2 2 2 2 2 2 2 3 3 2 1 1 2 1 1 2 3 3 3 2 2 2 2
12 9 8 6 6 5 5 5 4 4 3 3 3 3 3 2 2 1 1 1 1 2 2 2 2 2 2 2 2 2 2 1 2 1 1 0 1 2 3 3 3 3 3
10 9 8 8 7 6 5 6 5 4 3 3 3 4 3 2 1 1 0 1 2 2 2 2 2 2 1 1 2 2 1 1 1 2 1 1 2 1 2 3 3 3 3
10 9 8 7 7 7 6 5 5 3 3 3 3 3 2 1 1 1 2 2 2 2 2 2 2 2 1 2 2 2 2 1 1 1 1 1 1 1 1 2 2 3 2
9 8 7 7 7 6 6 5 5 3 3 3 3 3 3 2 3 2 2 1 1 2 2 2 2 1 1 1 2 2 2 1 1 1 0 0 0 0 1 1 1 1 2
8 9 9 9 8 7 6 5 5 3 2 3 2 2 2 3 3 2 1 1 1 1 2 1 1 1 1 1 1 2 2 1 1 1 1 1 1 1 1 1 1 1 1
8 8 8 8 7 6 6 5 4 3 2 2 2 2 2 2 1 1 1 1 0 1 1 1 1 2 2 2 2 1 2 2 2 2 1 1 1 1 2 2 2 1 1
9 8 8 7 6 6 5 5 4 3 2 2 2 2 3 3 2 1 1 0 0 0 1 2 2 2 2 2 2 1 2 2 2 2 2 1 1 1 1 1 2 2 1
8 8 7 7 5 5 4 4 4 4 3 2 2 3 3 2 2 2 2 2 2 2 2 2 2 3 3 2 2 2 2 2 2 2 2 2 1 1 0 1 1 2 2
8 8 7 7 6 5 4 3 3 3 3 3 3 3 3 2 3 2 2 2 2 2 3 2 2 3 3 3 2 2 2 2 3 3 2 2 1 1 1 0 0 1 1
8 8 8 7 6 5 4 4 3 3 3 3 3 3 2 3 3 2 2 2 2 2 2 2 3 3 3 3 3 3 3 2 3 3 2 3 2 2 1 1 0 0 1
8 7 7 7 6 5 4 4 3 3 3 3 3 3 2 2 2 1 2 2 2 3 3 3 3 3 3 3 3 2 2 2 2 2 2 2 2 1 1 1 0 0 0
8 8 6 6 6 5 5 4 3 3 4 4 3 2 1 1 1 1 2 2 2 3 3 3 3 2 3 3 3 3 2 2 2 2 2 2 1 1 0 0 0 0 1
8 8 7 6 6 5 5 4 4 3 4 4 2 1 1 1 1 1 2 2 2 3 2 3 3 3 3 3 3 3 2 2 3 3 3 3 2 2 0 1 1 1 1
9 8 8 7 7 6 6 5 4 4 4 3 2 2 1 1 1 1 2 2 3 3 3 3 3 3 3 4 4 2 2 2 2 3 3 3 4 4 3 1 1 2 2
10 9 8 8 7 7 6 6 5 4 4 3 2 2 2 1 1 2 2 2 2 2 2 2 2 2 3 4 4 3 2 2 2 2 2 3 3 4 2 2 2 1 1
10 9 8 7 6 6 6 5 4 4 4 3 2 2 2 2 1 2 1 0 1 1 1 1 1 1 3 4 3 3 2 2 2 2 1 2 3 3 2 2 2 2 2
9 8 8 7 6 7 7 6 4 4 4 4 3 3 3 2 2 1 1 1 0 1 1 1 1 1 3 4 4 2 2 2 3 3 2 2 2 3 2 2 1 2 2
8 8 7 7 6 6 6 6 5 4 4 4 3 3 3 2 2 2 1 1 1 1 1 1 2 2 3 4 3 2 1 1 2 3 3 3 3 4 3 1 0 1 2
9 9 8 7 6 6 7 6 4 4 4 3 3 2 2 2 2 2 1 1 1 1 1 2 3 3 3 4 3 2 0 0 1 2 3 3 4 4 3 1 1 2 2
8 9 8 6 6 6 7 6 4 4 3 3 3 2 2 2 2 1 1 1 0 1 2 2 3 3 3 3 3 2 1 0 0 2 3 3 6 5 4 2 2 3 1
9 7 8 7 5 6 6 6 4 3 3 3 2 2 1 1 1 1 1 1 1 1 1 1 2 3 3 3 3 3 3 2 1 2 5 6 6 5 4 4 4 2 0
7 7 8 7 5 5 5 5 4 4 4 3 2 2 1 1 1 1 1 1 2 2 2 2 2 2 2 2 2 2 2 3 3 4 5 6 6 4 3 4 3 1 1
6 7 8 7 6 5 5 5 5 5 4 3 2 2 2 2 2 2 2 3 4 4 4 3 3 3 3 4 4 2 2 2 3 3 3 3 3 3 3 3 2 2 1
6 7 7 7 6 6 5 5 5 5 4 3 2 2 2 2 2 2 3 5 5 7 8 7 6 5 6 6 5 5 5 4 4 1 2 2 3 3 3 3 3 2 2
Wind_Direction
151 143 129 124 116 109 106 105 104 104 107 110 113 107 103 103 84 75 82 73 66 62 57 38 27 23 30 16 5 4 3 350 352 9 347 341 351 1 344 336 346 1 356
147 145 134 125 121 123 116 110 109 105 100 113 117 118 117 111 108 70 46 56 70 64 65 49 37 25 23 20 19 29 18 340 4 21 356 339 344 353 0 7 20 12 18
160 156 146 139 130 127 127 118 108 100 92 93 89 82 66 57 50 37 14 4 47 59 56 57 59 36 34 14 5 22 42 342 323 18 116 118 286 316 337 8 21 21 29
160 160 153 147 143 136 125 115 110 105 105 104 109 115 120 133 171 155 53 5 26 38 43 54 55 41 31 14 346 19 8 30 333 326 338 194 185 212 318 336 356 9 23
166 161 156 148 142 135 128 122 114 112 108 104 114 117 112 125 92 76 60 29 16 19 30 49 49 41 28 7 359 4 4 7 318 311 322 345 15 110 171 289 327 351 355
158 150 141 132 130 128 123 118 113 107 105 105 108 120 124 113 94 80 68 31 7 2 6 21 27 23 19 5 352 354 358 354 337 318 293 200 229 250 187 234 287 320 324
141 142 141 133 129 131 127 124 120 110 102 103 101 109 120 120 121 127 106 69 17 347 329 0 4 354 350 352 359 359 338 346 338 313 293 253 230 210 195 192 241 290 307
135 140 137 130 131 131 127 123 119 119 102 97 90 82 89 98 107 118 123 122 201 260 298 347 349 347 359 5 10 4 331 347 333 330 320 279 267 225 197 185 180 261 314
140 137 132 130 134 130 124 122 122 110 95 101 98 77 76 85 87 74 67 62 318 338 9 11 7 0 4 1 4 356 342 348 330 320 326 305 287 270 234 201 181 178 225
138 133 130 131 127 123 118 115 116 118 110 90 90 92 81 83 83 81 59 41 19 25 25 21 24 15 5 1 6 344 345 5 345 338 352 339 310 315 314 214 216 193 182
144 140 140 136 128 126 130 128 123 116 100 90 89 85 75 71 70 67 50 40 30 27 28 22 29 21 12 7 5 348 353 6 355 354 358 343 331 336 332 321 232 199 169
144 144 143 140 140 146 149 148 144 133 127 119 101 90 77 67 59 45 33 39 35 29 36 42 39 30 22 16 21 12 14 13 358 350 1 347 352 10 350 11 3 236 191
146 146 148 153 155 154 150 146 144 145 132 120 106 94 78 70 60 35 30 38 39 34 31 40 38 30 25 22 19 22 20 8 354 348 346 329 355 359 346 9 14 255 141
154 153 156 159 157 153 148 145 149 147 133 121 114 110 109 107 79 43 41 38 44 48 36 35 38 40 34 25 14 19 19 6 356 351 343 329 324 276 258 293 246 163 108
156 159 160 158 152 145 146 147 146 142 136 128 130 148 151 111 80 58 45 43 40 49 43 42 35 30 28 13 13 12 20 12 356 350 349 353 5 11 347 183 178 145 135
165 164 161 159 158 155 153 150 148 145 134 134 151 151 125 96 77 70 64 53 38 34 37 37 34 24 13 5 18 22 9 358 354 345 342 349 3 10 15 12 193 176 170
164 162 162 165 163 161 154 154 157 147 136 137 138 135 132 112 98 95 74 52 31 35 30 14 28 6 339 354 2 9 18 3 343 334 338 347 357 4 4 12 25 28 192
163 160 157 158 157 153 147 150 149 145 143 139 144 141 133 124 111 93 80 28 11 15 351 331 340 339 332 351 0 17 29 10 352 348 339 337 335 342 354 23 24 5 348
162 160 155 150 151 151 149 144 143 146 144 148 155 156 148 143 146 150 217 242 297 318 299 283 310 324 318 340 352 13 26 9 349 345 342 337 340 338 359 47 31 1 333
151 149 146 141 148 156 150 144 147 149 163 171 170 162 157 159 181 207 230 252 257 271 287 301 295 294 304 324 345 3 42 358 332 332 334 339 341 344 357 64 91 320 302
147 146 146 149 159 158 147 148 154 172 184 171 157 156 168 183 196 214 239 257 286 330 326 310 304 303 299 315 330 350 99 255 312 323 322 318 334 338 339 326 207 239 265
142 145 147 152 158 154 148 151 171 187 166 152 153 169 194 203 186 208 266 272 249 315 307 306 310 309 309 310 320 335 334 187 234 295 298 304 323 328 326 311 274 281 298
147 146 148 149 154 157 153 159 181 166 149 144 162 188 210 223 203 204 242 277 274 263 281 282 286 296 307 312 328 343 344 350 303 281 289 304 318 324 321 309 305 314 343
147 145 145 149 159 166 163 171 174 161 152 161 186 198 197 237 260 246 226 228 245 248 256 248 256 277 292 298 315 323 323 330 329 318 315 318 322 322 299 300 307 290 229
146 148 152 161 170 170 169 172 167 155 154 170 187 199 214 223 249 267 253 237 236 221 218 229 221 221 254 257 249 250 279 293 300 319 334 342 338 333 322 309 295 287 279
151 154 160 165 170 167 170 174 170 162 159 173 192 203 221 236 241 263 295 285 258 260 244 234 225 236 243 251 260 265 275 290 304 339 317 309 306 296 288 289 290 281 260